www.pogodaiklimat.ru

Погода и климат >> Архив погоды >> Португалия >> Фуншал


ПОГОДА в Фуншале

  • Прогноз погоды в Фуншале
  • Монитор погоды в Фуншале

АРХИВ ПОГОДЫ в Фуншале

Время (UTC), дата Ветер
(напр.,м/с)
 
Видим.   Явления Облачность Т
(С)
Тd
(С)
f
(%)
Тe
(С)
Тes
(С)
Комфортность P
(гПа)
Po
(гПа)
Тmin
(С)
Tmax
(С)
R
(мм)
R24
(мм)
S
(см)
13 14.05 н/о н/о +23.2 +16.8 67 1015.3 1008.6
14 14.05 н/о н/о +23.5 +17.5 69 1015.1 1008.4
15 14.05 нст 2 18 км 3/3 600 м
[]
+22.1 +16.7 71 +26 +40 душно 1015.0 1008.2
16 14.05 ЮЗ 2 18 км 3/1 700 м
[Cu hum Ci fib]
+23.5 +17.7 70 +28 +39 душно 1014.5 1007.8
17 14.05 н/о н/о +23.6 +17.2 67 1014.3 1007.6
18 14.05 нст 2
{5}
18 км 3/1 700 м
[Cu hum Ci fib]
+22.4 +16.9 71 +27 +30 душно 1030.1 1007.6 +24.0
19 14.05 н/о н/о +20.7 +16.5 77 1014.5 1007.7
20 14.05 С 1 н/о н/о +19.8 +16.3 80 +23 +23 комфорт 1014.9 1008.1
21 14.05 С 1 н/о н/о +19.5 +16.3 82 +23 +23 комфорт 1015.4 1008.6
22 14.05 штиль 0 н/о н/о +19.8 +16.5 81 +22 +22 комфорт 1015.9 1009.1
23 14.05 штиль 0 н/о н/о +19.1 +15.9 82 +20 +20 1016.0 1009.2
00 15.05 штиль 0 н/о н/о +19.1 +16.0 82 +20 +20 1015.8 1009.0
01 15.05 штиль 0 н/о н/о +19.0 +15.5 80 +20 +20 1015.6 1008.7
02 15.05 СВ 1 н/о н/о +19.0 +14.3 74 +21 +21 комфорт 1014.9 1008.1
03 15.05 штиль 0 н/о н/о +18.6 +14.0 75 +19 +19 1014.6 1007.7
04 15.05 н/о н/о +18.6 +13.9 74 1014.2 1007.4
05 15.05 С 1 н/о н/о +18.2 +14.3 78 +20 +20 1014.1 1007.3
06 15.05 СВ 1 н/о н/о +18.0 +14.2 78 +19 +19 1014.3 1001.5 +18.0
07 15.05 СВ 1 18 км 3/1 600 м
[Cu hum Ac trans Ci fib]
+18.1 +13.4 74 +19 +20 1014.5 1007.7
08 15.05 18 км 3/1 600 м
[Cu hum Ac trans Ci fib]
+20.5 +16.2 76 1014.6 1007.9
09 15.05 нст 1 18 км 3/3 600 м
[]
+20.9 +16.7 77 +26 +32 душно 1030.1 1008.1
10 15.05 С 2 18 км 3/1 600 м
[Cu hum Ac trans Ci fib]
+22.8 +17.7 73 +28 +37 душно 1015.1 1008.4
11 15.05 18 км 4/1 600 м
[Cu hum Ci fib]
+22.3 +17.3 73 1015.1 1008.4
12 15.05 нст 2
{5}
18 км 3/0
[]
+23.1 +17.3 70 +28 +47 душно 1030.1 1008.5
13 15.05 С 2
{5}
н/о н/о +23.8 +17.5 68 +28 +28 душно 1015.2 1008.5
14 15.05 С 1
{6}
н/о н/о +21.9 +17.0 74 +26 +26 душно 1015.1 1008.4
15 15.05 нст 2 18 км 1/1 600 м
[]
+22.9 +17.5 72 +28 +44 душно 1015.3 1008.6
16 15.05 С 2 н/о н/о +22.6 +17.2 72 +27 +27 душно 1015.3 1008.6
17 15.05 С 1 н/о н/о +20.8 +16.5 76 +25 +25 комфорт 1014.9 1008.2
18 15.05 нст 2 18 км 10/10 540 м
[Cu Sc]
+21.2 +16.6 75 +25 +25 комфорт 1030.1 1008.1 +23.9
19 15.05 н/о н/о +20.6 +16.2 76 1014.7 1007.9
20 15.05 н/о н/о +19.9 +16.3 80 1014.6 1007.8
21 15.05 штиль 0 н/о н/о +19.5 +16.2 81 +21 +21 комфорт 1014.9 1008.1
22 15.05 штиль 0 н/о н/о +19.1 +16.2 83 +20 +20 1015.3 1008.5
23 15.05 н/о н/о +19.0 +16.0 83 1015.4 1008.6
00 16.05 С 1 н/о н/о +19.2 +16.3 83 +22 +22 комфорт 1015.4 1008.5
01 16.05 н/о н/о +19.2 +15.7 80 1015.4 1008.6
02 16.05 н/о н/о +19.2 +15.4 79 1015.0 1008.2
03 16.05 С 1 н/о н/о +18.7 +15.0 79 +21 +21 комфорт 1014.8 1008.0
04 16.05 штиль 0 н/о н/о +18.0 +14.4 79 +18 +18 1014.8 1008.0
05 16.05 н/о н/о +18.2 +14.6 80 1015.0 1008.1
06 16.05 штиль 0 н/о н/о +17.8 +14.1 79 +18 +18 1015.0 1001.4 +17.8
07 16.05 штиль 0 18 км 1/0
[Ac trans]
+18.1 +14.1 77 +18 +19 1015.3 1008.5
08 16.05 штиль 0 18 км 1/0
[Ac trans]
+20.1 +14.0 68 +22 +26 комфорт 1015.6 1008.8
09 16.05 ЮЗ 1 3800 м 1/0
[]
+21.9 +15.7 68 +26 +33 душно 1030.1 1009.1
10 16.05 18 км 1/0
[Ac trans]
+23.3 +16.0 64 1015.9 1009.2
11 16.05 18 км 1/0
[Ac trans]
+24.5 +16.1 59 1016.0 1009.3
12 16.05 нст 1 18 км 1/0
[]
+24.9 +15.9 57 +28 +50 жарко 1030.1 1009.2
13 16.05 С 2 н/о н/о +25.3 +15.2 54 +28 +28 жарко 1015.9 1009.2
14 16.05 н/о н/о +25.6 +15.9 55 1015.5 1008.8
15 16.05 нст 2 18 км 1/0
[]
+25.8 +15.0 51 +29 +45 душно 1015.7 1009.0
16 16.05 н/о н/о +22.7 +15.7 65 1015.4 1008.7
17 16.05 С 1 н/о н/о +23.2 +15.7 63 +28 +28 душно 1015.2 1008.5
18 16.05 нст 1 18 км 1/0
[Ac trans]
+22.2 +15.8 67 +26 +30 душно 1040.2 1008.5 +26.1
19 16.05 штиль 0 н/о н/о +21.3 +15.7 70 +25 +25 комфорт 1015.6 1008.8
20 16.05 н/о н/о +20.7 +15.4 72 1016.0 1009.3
21 16.05 штиль 0 н/о н/о +20.0 +14.8 72 +22 +22 комфорт 1016.4 1009.6
22 16.05 С 1 н/о н/о +20.1 +15.6 75 +24 +24 комфорт 1017.0 1010.1
23 16.05 штиль 0 н/о н/о +20.0 +16.8 82 +22 +22 комфорт 1017.2 1010.4
00 17.05 штиль 0 н/о н/о +19.7 +16.6 82 +22 +22 комфорт 1017.5 1010.7
01 17.05 н/о н/о +19.7 +16.2 80 1017.2 1010.4
02 17.05 н/о н/о +19.4 +15.9 80 1016.9 1010.1
03 17.05 С 1 н/о н/о +18.9 +14.6 76 +21 +21 комфорт 1016.9 1010.0
04 17.05 С 1 н/о н/о +18.7 +14.0 74 +21 +21 комфорт 1017.2 1010.4
05 17.05 штиль 0 н/о н/о +18.1 +13.0 72 +18 +18 1017.3 1010.5
06 17.05 штиль 0 н/о н/о +17.8 +13.6 76 +18 +18 1017.3 1001.4 +17.7
07 17.05 штиль 0 18 км 3/3 900 м
[Sc]
+18.4 +13.8 75 +19 +19 1017.6 1010.8
08 17.05 18 км 6/6 600 м
[Cu Sc]
+20.0 +14.2 69 1018.3 1011.5
09 17.05 нст 1 18 км 5/4 600 м
[St Ac trans]
+20.4 +14.7 70 +24 +28 комфорт 1040.2 1012.0
10 17.05 С 2 18 км 4/4 700 м
[Cu Sc]
+22.2 +15.1 64 +26 +33 душно 1018.7 1011.9
11 17.05 18 км 4/4 700 м
[Cu Sc]
+23.3 +15.6 62 1019.2 1012.5
12 17.05 нст 2
{5}
18 км 3/3 600 м
[]
+23.2 +15.1 60 +27 +41 душно 1040.2 1012.7
13 17.05
{5}
н/о н/о +24.4 +14.8 55 1019.2 1012.5
14 17.05 С 3
{6}
н/о н/о +23.6 +14.9 58 +26 +26 жарко 1018.8 1012.0
15 17.05 нст 3
{5}
18 км 6/0
[Ac inh Cc]
+22.3 +14.2 60 +26 +38 жарко 1018.5 1011.7
16 17.05 -5
{5}
н/о н/о +21.2 +14.6 66 1018.7 1011.9
17 17.05
{6}
н/о н/о +21.0 +14.4 66 1018.7 1011.9
18 17.05 нст 2
{5}
18 км 8/6 600 м
[Cu hum Ac trans]
+20.5 +13.8 65 +24 +25 комфорт 1030.1 1011.5 +24.6
19 17.05 С 1 н/о н/о +19.8 +13.4 67 +23 +23 комфорт 1017.8 1011.0
20 17.05 С 1 н/о н/о +19.3 +13.6 70 +22 +22 комфорт 1018.1 1011.3
21 17.05 С 1 н/о н/о +19.2 +13.4 69 +22 +22 комфорт 1019.0 1012.2
22 17.05 н/о н/о +18.9 +13.1 69 1019.5 1012.7
23 17.05 н/о н/о +18.3 +11.3 64 1019.5 1012.6
00 18.05 штиль 0 н/о н/о +17.9 +11.7 67 +18 +18 1019.2 1012.4
01 18.05 штиль 0 н/о н/о +17.8 +11.7 67 +18 +18 1019.5 1012.6
02 18.05 СВ 1 н/о н/о +17.7 +11.5 67 +19 +19 1019.3 1012.4
03 18.05 С 1 н/о н/о +17.7 +11.4 67 +19 +19 1018.7 1011.8
04 18.05 н/о н/о +17.4 +11.0 66 1018.6 1011.7
05 18.05 штиль 0 н/о н/о +16.6 +10.9 69 +17 +17 1018.6 1011.7
06 18.05 штиль 0 н/о н/о +16.6 +10.8 69 +17 +17 1018.8 1001.2 +16.4
07 18.05 н/о н/о +17.1 +10.6 66 1019.3 1012.4
08 18.05 н/о н/о +19.4 +11.3 59 1019.4 1012.6
09 18.05 С 1 н/о н/о +19.7 +11.5 59 +22 +22 комфорт 1019.4 1012.6
10 18.05 С 2 н/о н/о +20.1 +12.4 61 +23 +23 комфорт 1019.6 1012.8
11 18.05 С 2
{5}
н/о н/о +21.4 +12.8 58 +24 +24 комфорт 1020.2 1013.4
12 18.05 нст 3
{5}
н/о н/о +21.5 +12.5 57 +24 +24 комфорт 1020.2 1013.4
13 18.05
{5}
н/о н/о +21.3 +12.0 55 1020.2 1013.4
14 18.05
{5}
н/о н/о +21.9 +12.7 56 1019.9 1013.1
15 18.05 нст 2
{5}
н/о н/о +22.1 +13.1 57 +25 +25 комфорт 1019.7 1012.9
16 18.05 С 2
{5}
н/о н/о +21.2 +12.3 57 +23 +23 комфорт 1019.4 1012.6
17 18.05
{5}
н/о н/о +22.1 +12.8 56 1019.5 1012.7
18 18.05 нст 2
{5}
н/о н/о +20.7 +12.9 61 +24 +24 комфорт 1019.7 1012.8 +23.1
19 18.05 н/о н/о +19.4 +12.5 64 1020.0 1013.1
20 18.05 С 1 н/о н/о +18.9 +12.4 66 +21 +21 комфорт 1020.5 1013.7
21 18.05 С 1 н/о н/о +18.8 +12.6 67 +21 +21 комфорт 1020.8 1013.9
22 18.05 н/о н/о +18.6 +12.5 68 1021.4 1014.5
23 18.05 н/о н/о +18.7 +12.1 65 1021.4 1014.5
00 19.05 С 1 н/о н/о +18.5 +12.4 68 +20 +20 1021.4 1014.5
01 19.05 С 1 н/о н/о +18.1 +12.1 68 +19 +19 1021.1 1014.2
02 19.05 С 1 н/о н/о +18.2 +12.4 69 +20 +20 1020.6 1013.7
03 19.05 С 1 н/о н/о +18.1 +12.4 69 +19 +19 1020.3 1013.4
04 19.05 н/о н/о +18.2 +12.3 68 1020.0 1013.1
05 19.05 С 1 н/о н/о +17.6 +11.3 67 +19 +19 1019.5 1012.6
06 19.05 нст 1 н/о н/о +17.4 +11.0 66 +18 +18 1019.4 1001.5 +17.4
07 19.05 С 1 н/о н/о +17.5 +11.2 67 +19 +19 1020.0 1013.1
08 19.05 н/о н/о +19.1 +11.9 63 1020.4 1013.5
09 19.05 С 1 н/о н/о +20.3 +12.4 60 +23 +23 комфорт 1020.9 1014.1
10 19.05 н/о н/о +20.7 +12.7 60 1021.2 1014.4
11 19.05 С 2
{5}
н/о н/о +20.6 +13.1 62 +24 +24 комфорт 1021.5 1014.7
12 19.05 С 3 н/о н/о +20.9 +12.7 59 +24 +24 комфорт 1021.4 1014.5
13 19.05
{5}
н/о н/о +21.9 +13.0 57 1021.2 1014.4
14 19.05 ЮЗ 3
{6}
н/о н/о +22.9 +13.1 54 +26 +26 жарко 1020.9 1014.1
15 19.05 нст 2
{5}
н/о н/о +21.1 +12.8 59 +23 +23 комфорт 1020.7 1013.9
16 19.05 С 1
{5}
н/о н/о +20.8 +12.9 61 +24 +24 комфорт 1020.5 1013.7
17 19.05 С 2 н/о н/о +21.6 +14.4 64 +25 +25 комфорт 1019.9 1013.1
18 19.05 нст 1 н/о н/о +19.9 +14.1 69 +23 +23 комфорт 1019.5 1012.7 +23.3
19 19.05 н/о н/о +19.6 +13.8 69 1019.7 1012.9
20 19.05 н/о н/о +19.0 +13.6 71 1020.0 1013.1
21 19.05 С 1 н/о н/о +18.6 +13.5 72 +20 +20 1020.2 1013.4
22 19.05 штиль 0 н/о н/о +18.2 +13.6 75 +18 +18 1020.8 1013.9
23 19.05 штиль 0 н/о н/о +18.4 +14.0 76 +19 +19 1020.8 1013.9
00 20.05 штиль 0 н/о н/о +18.7 +13.7 73 +19 +19 1020.7 1013.8
01 20.05 н/о н/о +18.4 +13.2 72 1020.4 1013.5
02 20.05 СВ 1 н/о н/о +18.1 +12.8 71 +19 +19 1019.6 1012.8
03 20.05 С 1 н/о н/о +18.1 +12.6 70 +19 +19 1019.1 1012.2
04 20.05 н/о н/о +17.8 +12.4 71 1018.7 1011.8
05 20.05 н/о н/о +17.8 +12.5 71 1018.8 1012.0
06 20.05 нст 1 н/о н/о +17.3 -87.1 73 +18 +18 1019.1 1001.4 +17.3
07 20.05 СВ 1 н/о н/о +17.7 +12.6 72 +19 +19 1019.6 1012.7
08 20.05 штиль 0 н/о н/о +19.9 +13.4 66 +22 +22 комфорт 1019.8 1013.0
09 20.05 нст 1 20 км 3/3 700 м
[Cu hum]
+20.6 +14.4 68 +24 +30 комфорт 1030.1 1013.2
10 20.05 н/о н/о +21.9 +14.7 64 1020.2 1013.4
11 20.05 н/о н/о +21.0 +14.2 65 1020.5 1013.7
12 20.05 ЮЗ 2 20 км 9/9 600 м
[Cu Sc]
+21.7 +14.0 62 +25 +27 комфорт 1030.1 1013.7
13 20.05 С 2
{5}
н/о н/о +21.9 +14.5 63 +25 +25 комфорт 1020.4 1013.6
14 20.05 20 км 9/9 700 м
[Cu Sc]
+21.4 +14.4 64 1020.3 1013.4
15 20.05 нст 2 20 км 9/9 700 м
[Cu Sc]
+21.5 +13.6 61 +24 +26 комфорт 1020.0 1013.2
16 20.05 ЮЗ 2 20 км 8/8 700 м
[Cu Sc]
+22.3 +13.9 59 +25 +28 комфорт 1019.7 1012.9
17 20.05 С 1 н/о н/о +21.1 +13.4 61 +23 +23 комфорт 1019.8 1013.0
18 20.05 нст 1 20 км 4/4 700 м
[Cu Sc]
+20.8 +13.2 62 +24 +27 комфорт 1030.1 1012.7 +22.5
19 20.05 н/о н/о +19.9 +13.1 65 1019.7 1012.9
20 20.05 н/о н/о +19.3 +13.2 68 1020.3 1013.4
21 20.05 С 1 н/о н/о +18.8 +12.9 69 +21 +21 комфорт 1020.8 1014.0
22 20.05 С 1 н/о н/о +19.0 +13.0 68 +21 +21 комфорт 1021.2 1014.4
23 20.05 штиль 0 н/о н/о +19.0 +13.2 69 +20 +20 1021.5 1014.6
00 21.05 штиль 0 н/о н/о +18.6 +13.2 71 +19 +19 1021.4 1014.5
01 21.05 штиль 0 н/о н/о +17.9 +13.2 74 +18 +18 1021.0 1014.1
02 21.05 СВ 1 н/о н/о +17.8 +12.9 73 +19 +19 1020.1 1013.2
03 21.05 штиль 0 н/о н/о +17.7 +12.2 70 +18 +18 1019.6 1012.7
04 21.05 С 1 н/о н/о +17.6 +12.7 73 +19 +19 1019.4 1012.5
05 21.05 С 1 н/о н/о +17.3 +12.4 73 +18 +18 1019.5 1012.6
06 21.05 нст 1 н/о н/о +17.3 -65.4 73 +18 +18 1020.0 1001.4 +17.2
07 21.05 н/о н/о +18.4 +13.2 72 1019.9 1013.1
08 21.05 С 1 н/о н/о +18.5 +13.4 72 +20 +20 1019.9 1013.0
09 21.05 нст 1 18 км 4/1 700 м
[Cu hum Ci sp]
+20.4 +13.3 64 +24 +31 комфорт 1030.1 1013.6
10 21.05 Ю 1 н/о н/о +21.5 +12.9 58 +24 +24 комфорт 1020.8 1014.0
11 21.05 20 км 6/3 660 м
[Cu Sc Ac trans Ci sp]
+20.5 +13.2 63 1021.1 1014.3
12 21.05 нст 2
{5}
20 км 9/6 600 м
[Cu Sc Ac trans Ci sp]
+20.0 +14.3 70 1030.1 1014.2
13 21.05 С 2-7
{7}
н/о н/о +20.9 +13.4 62 +24 +24 комфорт 1020.5 1013.7

 

Местоположение метеостанции Фуншал (Португалия): широта 32.63 долгота -16.90 высота над уровнем моря 56 м.

В архиве по умолчанию представлена погода в Фуншале за последнюю неделю. Архивные данные за месяц целиком и за предыдущие месяцы, начиная с января 2011 года, Вы можете получить, выбрав интересующий диапазон дат из раскрывающегося списка и нажав кнопку "Ввод!".


*Определитесь, кто Вы:
робот инопланетянин человек

Внимание! Время в таблицах - всемирное. Для получения местного времени необходимо прибавить поправку, которая равна 0 ч.

Смотрите также архив погоды в соседних городах и на ближайших метеорологических станциях:

Погода в Санта-Катарине (Португалия) (14 км)
Погода на Порту-Санту (Португалия) (71 км)
Погода на Пальме (Канарские Острова) (453 км)
Погода в Тасакорте (Канарские Острова) (459 км)
Погода на Тенерифе (Канарские Острова) (466 км)
Погода в Санта-Круз-де-Тенерифе (Канарские Острова) (469 км)
Погода в Пуэрто-де-ла-Крус (Канарские Острова) (469 км)
Погода в Тенерифе-Гуимаре (Канарские Острова) (482 км)
Погода в Обсерватории Izana (Канарские Острова) (483 км)
Погода в Сан-Себастьян-де-ла-Гомера (Канарские Острова) (505 км)

Пояснения к столбцам:

Ветер - указаны скорость ветра в м/с - средняя за 10 мин, порывы в срок и между сроками (в фигурных скобках) и направление, откуда дует ветер: С - северный, СВ - северо-восточный, В - восточный, ЮВ - юго-восточный, Ю - южный, ЮЗ - юго-западный, З - западный, СЗ - северо-западный.
Видимость - горизонтальная дальность видимости в метрах или километрах. При видимости от 1 до 10 км при отсутствии осадков обычно наблюдается дымка, при ухудшении видимости до 1 км и менее - туман. В сухую погоду видимость может ухудшаться дымом, пылью или мглою.
Явления - указаны атмосферные явления, наблюдавшиеся в срок или в последний час перед сроком; фигурными скобками обозначены явления, наблюдавшиеся между сроками (за 1-3 часа до срока); квадратными скобками обозначены град или гололедные отложения с указанием их диаметра в мм.
Облачность - указаны через наклонную черту общая и нижняя облачность в баллах и высота нижней границы облаков в метрах; квадратными скобками обозначены формы облаков: Ci - перистые, Cs - перисто-слоистые, Cc - перисто-кучевые, Ac - высококучевые, As - высокослоистые, Sc - слоисто-кучевые, Ns - слоисто-дождевые, Cu - кучевые, Cb - кучево-дождевые. Подробнее классификацию облаков см. в Атласе облаков (PDF).
T - Температура воздуха - температура, измеренная на высоте 2 м над землей.
Td - Температура точки росы - температура, при понижении до которой содержащийся в воздухе водяной пар достигнет насыщения.
f - Относительная влажность воздуха - влажноcть воздуха, измеренная на высоте 2 м над землей.
Te - Эффективная температура - температура, которую ощущает одетый по сезону человек в тени. Характеристика душности погоды. При расчете учитывается влияние влажности воздуха и скорости ветра на теплоощущения человека.
Tes - Эффективная температура на солнце - температура, которую ощущает человек, с поправкой на солнечный нагрев. Характеристика знойности погоды. Зависит от высоты солнца над горизонтом, облачности и скорости ветра. Ночью, в пасмурную погоду, а также при ветре 12 м/с и более поправка равна нулю.
P - Атмосферное давление - приведенное к уровню моря атмосферное давление.
Po - Атмосферное давление - измеренное на уровне метеостанции атмосферное давление.
Tmin - Минимальная температура - минимум температуры воздуха на высоте 2 м над землей.
Tmax - Максимальная температура - максимум температуры воздуха на высоте 2 м над землей.
R - Количество осадков - Количество выпавших осадков за период времени, мм. При наведении курсора мыши на число - период времени, за который выпало указанное количество осадков.
R24 - Количество осадков - Количество выпавших осадков за 24 часа, мм.
S - Снежный покров - Высота снежного покрова, см. При наведении курсора мыши на число - состояние снежного покрова и степень покрытия местности в баллах.